This is the latest recevied weather packets stored in our database for station/object W8CWV-13. If no packets are shown the sender has not sent any weather packets the latest 10 day(s).
| Time | Temp. | Humidity | Pressure | Rain* | Wind** | Luminosity | Snow |
|---|---|---|---|---|---|---|---|
| 1777957593 | 14.44° C | 100% | 1017.8 hPa | - | - | - | - |
| 1777957023 | 14.44° C | 100% | 1017.7 hPa | - | - | - | - |
| 1777956452 | 14.44° C | 100% | 1017.6 hPa | - | - | - | - |
| 1777955878 | 15° C | 100% | 1017.7 hPa | - | - | - | - |
| 1777955303 | 15° C | 100% | 1017.5 hPa | - | - | - | - |
| 1777954727 | 15° C | 100% | 1017.3 hPa | - | - | - | - |
| 1777954159 | 15.56° C | 100% | 1017.1 hPa | - | - | - | - |
| 1777953585 | 15.56° C | 100% | 1016.9 hPa | - | - | - | - |
| 1777953014 | 15.56° C | 100% | 1016.9 hPa | - | - | - | - |
| 1777952440 | 15.56° C | 100% | 1016.7 hPa | - | - | - | - |
| 1777951868 | 16.11° C | 100% | 1016.5 hPa | - | - | - | - |
| 1777951300 | 16.67° C | 100% | 1016.5 hPa | - | - | - | - |
| 1777950726 | 16.67° C | 100% | 1016.5 hPa | - | - | - | - |
| 1777949588 | 17.78° C | 100% | 1016.6 hPa | - | - | - | - |
| 1777949012 | 17.78° C | 100% | 1016.6 hPa | - | - | - | - |
| 1777948439 | 18.33° C | 100% | 1016.5 hPa | - | - | - | - |
| 1777947867 | 17.78° C | 100% | 1016.6 hPa | - | - | - | - |
| 1777947295 | 17.78° C | 100% | 1016.6 hPa | - | - | - | - |
| 1777946723 | 17.22° C | 100% | 1016.7 hPa | - | - | - | - |
| 1777946154 | 17.22° C | 100% | 1016.7 hPa | - | - | - | - |
| 1777945575 | 17.78° C | 100% | 1016.6 hPa | - | - | - | - |
| 1777945009 | 17.78° C | 100% | 1016.5 hPa | - | - | - | - |
| 1777944432 | 18.33° C | 100% | 1016.4 hPa | - | - | - | - |
| 1777943859 | 18.89° C | 100% | 1016.3 hPa | - | - | - | - |
| 1777943286 | 19.44° C | 100% | 1016.2 hPa | - | - | - | - |
* Rain since midnight (hover to see other rain measurements)
** Current wind speed in m/s (hover to see current wind gust speed)